DW0281 Weather Reports


time (UTC)temp
C
wind
direction
speed
KPH
gust
KPH
rain 1hr
cm
rain 24hr
cm
rain mn
cm
humidity
%
barometer
mb
20190423081812 14 270 6.4 17.7 0.00 0.00 0.00 56 9.8
20190423081621 13 247 6.4 6.4 0.00 0.00 0.00 59 1012.9
20190423080312 13 270 8.0 14.5 0.00 0.00 0.00 57 10.0
20190423080121 12 22 8.0 6.4 0.00 0.00 0.00 59 1013.1
20190423080109 14 315 3.2 4.8 0.00 0.00 0.00 55 14.3
20190423074621 12 67 8.0 6.4 0.00 0.00 0.00 61 1013.4
20190423074609 13 337 3.2 4.8 0.00 0.00 0.00 57 14.3
20190423073312 13 270 8.0 14.5 0.00 0.00 0.00 59 10.4
20190423071811 13 270 9.7 16.1 0.00 0.00 0.00 59 10.5
20190423070311 12 270 8.0 14.5 0.00 0.00 0.00 60 10.7
20190423070122 11 135 8.0 22.5 0.00 0.00 0.00 64 1013.8
20190422234813 9 270 4.8 11.3 0.00 0.00 0.00 67 12.8
20190422234610 10 337 0.0 0.0 0.00 0.00 0.00 64 16.5
20190422233313 9 270 4.8 9.7 0.00 0.00 0.00 67 12.9
20190422230109 10 22 0.0 0.0 0.00 0.00 0.00 65 16.9
20190422224813 10 270 1.6 6.4 0.00 0.00 0.00 68 13.3
20190422223312 10 270 3.2 6.4 0.00 0.00 0.00 67 13.4
20190422223114 10 22 0.0 0.0 0.00 0.00 0.00 64 17.0
20190422221812 10 270 3.2 6.4 0.00 0.00 0.00 67 13.7
20190422221624 10 22 4.8 3.2 0.00 0.00 0.00 63 1016.8
20190422220123 10 225 3.2 3.2 0.00 0.00 0.00 63 1017.0
20190422214812 10 270 3.2 8.0 0.00 0.00 0.00 67 13.9
20190422214623 10 292 4.8 3.2 0.00 7.62 7.62 63 1017.2
20190422213311 11 270 4.8 9.7 0.00 0.00 0.00 66 13.9
20190422210311 11 270 4.8 9.7 0.00 0.00 0.00 66 14.0
20190422210112 12 315 1.6 1.6 0.00 0.00 0.00 63 17.6
20190422204811 11 270 4.8 9.7 0.00 0.00 0.00 66 14.0
20190422203123 12 337 6.4 4.8 0.00 7.62 7.62 60 1017.1
20190422203112 12 67 1.6 1.6 0.00 0.00 0.00 61 17.4
20190422201810 12 270 4.8 12.9 0.00 0.00 0.00 65 13.9
20190422200310 12 270 4.8 9.7 0.00 0.00 0.00 64 13.8
20190422200123 12 270 4.8 3.2 0.00 7.62 7.62 57 1017.1
20190422194623 13 337 4.8 3.2 0.00 7.62 7.62 53 1017.2
20190422194611 13 315 1.6 0.0 0.00 0.00 0.00 56 17.1
20190422193310 13 270 4.8 9.7 0.00 0.00 0.00 59 13.8
20190422193123 14 315 4.8 4.8 0.00 7.62 7.62 50 1017.2
20190422191611 14 22 0.0 1.6 0.00 0.00 0.00 50 17.2
20190422190310 14 270 4.8 11.3 0.00 0.00 0.00 52 13.5
20190422190123 15 270 4.8 3.2 0.00 7.62 7.62 44 1017.2
20190422184809 15 270 3.2 8.0 0.00 0.00 0.00 50 13.4
20190422184623 16 337 4.8 3.2 0.00 7.62 7.62 41 1017.1
20190422184610 15 360 0.0 0.0 0.00 0.00 0.00 46 17.2
20190422183123 17 270 4.8 9.7 0.00 7.62 7.62 39 1016.8
20190422181809 16 270 4.8 8.0 0.00 0.00 0.00 47 13.2
20190422180314 16 270 6.4 12.9 0.00 0.00 0.00 44 13.1
20190422180123 19 315 6.4 6.4 0.00 7.62 7.62 35 1016.9
20190422180110 17 45 1.6 1.6 0.00 0.00 0.00 41 17.3
20190422174813 16 270 4.8 8.0 0.00 0.00 0.00 43 13.0
20190422174623 21 45 4.8 4.8 0.00 7.62 7.62 32 1016.6
20190422174609 17 337 1.6 0.0 0.00 0.00 0.00 39 17.1
20190422173313 17 270 6.4 11.3 0.00 0.00 0.00 40 13.0
20190422171623 24 225 6.4 6.4 0.00 7.62 7.62 27 1016.9
20190422171609 18 67 1.6 3.2 0.00 0.00 0.00 36 17.6
20190422170123 26 202 6.4 4.8 0.00 7.62 7.62 27 1016.9
20190422170109 18 337 1.6 0.0 0.00 0.00 0.00 37 17.9
20190422164622 26 112 6.4 3.2 0.00 7.62 7.62 27 1016.9
20190422163312 18 29 4.8 9.7 0.00 0.00 0.00 40 13.1
20190422161623 27 315 8.0 8.0 0.00 7.62 7.62 26 1016.8
20190422160122 27 22 6.4 6.4 0.00 7.62 7.62 25 1016.8
20190422154613 20 45 1.6 1.6 0.00 0.00 0.00 34 18.0
20190422153113 20 112 1.6 3.2 0.00 0.00 0.00 33 18.0
20190422151811 19 38 8.0 16.1 0.00 0.00 0.00 33 13.3
20190422151622 28 135 6.4 1.6 0.00 7.62 7.62 25 1016.6
20190422150122 28 90 6.4 4.8 0.00 7.62 7.62 25 1016.6
20190422150112 20 67 1.6 0.0 0.00 0.00 0.00 33 17.9
20190422144811 20 42 6.4 11.3 0.00 0.00 0.00 36 13.5
20190422144622 28 270 8.0 6.4 0.00 7.62 7.62 25 1016.7
20190422144612 21 315 1.6 3.2 0.00 0.00 0.00 31 18.1
20190422143112 22 337 1.6 1.6 0.00 0.00 0.00 30 18.1
20190422141622 27 22 8.0 12.9 0.00 7.62 7.62 25 1016.9
20190422140122 27 270 8.0 6.4 0.00 7.62 7.62 25 1016.9
20190422134810 21 62 6.4 12.9 0.00 0.00 0.00 31 14.2
20190422134611 22 135 1.6 1.6 0.00 0.00 0.00 29 19.1
20190422133122 27 22 8.0 6.4 0.00 7.62 7.62 26 1017.4
20190422133111 23 67 1.6 3.2 0.00 0.00 0.00 29 19.1
20190422131810 22 46 4.8 9.7 0.00 0.00 0.00 28 14.4
20190422131611 22 112 1.6 1.6 0.00 0.00 0.00 29 19.1
20190422130309 22 81 9.7 16.1 0.00 0.00 0.00 27 14.5
20190422130122 26 67 8.0 6.4 0.00 7.62 7.62 27 1017.5
20190422124810 25 17 6.4 12.9 0.00 0.00 0.00 26 14.8
20190422124622 25 315 6.4 3.2 0.00 7.62 7.62 29 1017.8
20190422123309 25 63 6.4 11.3 0.00 0.00 0.00 27 15.0
20190422123122 24 292 8.0 4.8 0.00 7.62 7.62 29 1017.8
20190422123110 22 135 3.2 4.8 0.00 0.00 0.00 29 19.7
20190422121622 23 67 6.4 3.2 0.00 7.62 7.62 30 1018.2
20190422120110 22 360 3.2 1.6 0.00 0.00 0.00 29 19.8
20190422114814 26 54 4.8 14.5 0.00 0.00 0.00 25 15.5
20190422114622 22 22 8.0 3.2 0.00 7.62 7.62 32 1018.1
20190422113313 25 66 4.8 11.3 0.00 0.00 0.00 27 15.6
20190422111609 22 112 3.2 1.6 0.00 0.00 0.00 30 21.2
20190422110122 19 180 8.0 8.0 0.00 7.62 7.62 35 1018.9
20190422110109 21 315 1.6 3.2 0.00 0.00 0.00 30 21.1
20190422104813 23 56 8.0 17.7 0.00 0.00 0.00 27 16.2
20190422104622 18 315 6.4 8.0 0.00 7.62 7.62 36 1019.2
20190422101613 20 135 1.6 4.8 0.00 0.00 0.00 32 21.8
20190422100122 17 45 6.4 9.7 0.00 7.62 7.62 38 1019.8
20190422094812 19 42 4.8 12.9 0.00 0.00 0.00 36 16.9
20190422094621 17 337 6.4 4.8 0.00 7.62 7.62 39 1019.9
20190422093312 18 35 6.4 12.9 0.00 0.00 0.00 35 17.1
20190422091811 16 58 3.2 8.0 0.00 0.00 0.00 40 17.2
20190422091621 15 22 4.8 3.2 0.00 7.62 7.62 44 1020.1
20190422090311 16 98 4.8 11.3 0.00 0.00 0.00 40 17.4
20190422090121 15 225 6.4 3.2 0.00 7.62 7.62 44 1020.1
20190422084811 16 66 4.8 14.5 0.00 0.00 0.00 42 17.5
20190422084612 16 135 1.6 3.2 0.00 0.00 0.00 41 22.1
20190422083311 15 46 6.4 12.9 0.00 0.00 0.00 42 17.6
20190422083121 13 360 8.0 19.3 0.00 7.62 7.62 48 1020.1
20190422083112 16 112 1.6 8.0 0.00 0.00 0.00 44 22.1